Theta_e
292 293 294 295 297 298 300 301 303 304 307 306 304 301 298 297 295 296 297 298 299 301 302 302 302 304 303 304 305 308 307 306 305 307 309 309 306 303 302 305 304 303 301
292 292 292 293 294 295 297 298 298 300 301 301 300 297 294 293 293 293 292 293 293 294 294 296 296 298 298 298 300 301 303 303 303 300 304 303 306 304 306 306 303 302 303
291 291 291 291 293 292 293 294 295 296 297 296 295 293 293 293 291 290 290 290 291 291 292 292 292 292 292 291 292 295 297 298 300 301 299 297 297 297 304 303 302 303 302
291 290 290 290 290 290 291 291 293 293 294 295 294 294 292 288 288 289 289 289 289 289 290 290 290 290 290 289 290 290 290 291 289 296 295 298 296 293 293 299 299 300 298
290 288 288 287 287 289 289 290 290 290 290 291 291 290 289 288 289 288 288 288 288 288 288 288 288 288 288 288 288 288 288 289 288 288 289 290 291 295 288 287 290 292 293
289 288 288 287 287 288 288 289 288 287 289 289 290 289 288 288 287 287 287 287 287 287 287 287 287 287 287 286 287 287 287 287 287 287 287 286 285 285 285 284 285 287 289
288 287 286 286 286 286 287 287 287 286 287 288 288 288 288 288 287 287 287 286 286 286 285 286 285 285 285 285 286 286 286 285 285 285 285 286 285 286 285 284 284 284 287
289 288 287 287 286 286 287 286 286 285 286 287 286 287 287 287 286 286 286 286 285 285 285 285 284 284 284 284 284 284 284 284 284 284 284 284 285 285 285 283 282 281 282
289 288 288 287 286 286 286 286 286 286 286 286 286 286 286 286 285 285 286 285 285 284 284 283 283 283 283 283 283 283 282 283 283 283 283 283 283 284 284 284 284 282 278
289 289 288 287 287 287 287 286 286 286 286 286 286 285 285 285 285 285 284 284 284 283 283 283 282 282 282 282 282 282 282 282 282 282 282 282 282 282 283 283 283 283 281
290 289 289 288 287 287 286 286 286 285 285 286 286 285 285 285 285 285 284 284 283 282 281 281 281 280 280 280 280 280 280 280 280 281 280 280 281 281 281 281 281 281 281
291 290 290 289 286 285 285 285 286 285 286 286 285 285 285 285 284 284 283 283 282 281 280 279 279 279 279 279 278 278 279 278 278 278 278 278 279 278 279 279 279 279 280
291 291 290 289 287 286 285 285 285 285 286 285 285 285 285 284 284 283 282 281 280 279 279 278 278 277 277 277 278 278 278 278 278 278 277 277 277 276 277 277 276 277 277
291 291 290 290 290 288 286 285 285 285 285 285 285 284 285 284 283 282 281 280 279 278 277 277 276 276 276 276 277 277 277 278 278 277 277 276 276 275 275 275 275 276 276
290 290 290 291 290 289 287 286 286 285 285 284 284 284 285 284 282 281 279 278 277 277 276 276 275 275 275 275 276 277 277 277 276 276 276 276 275 275 275 275 275 274 274
290 290 290 290 290 289 288 287 286 285 285 284 284 285 284 282 280 278 277 276 275 274 274 273 273 272 273 273 275 276 276 275 275 274 274 274 275 274 275 275 276 276 274
291 290 290 290 290 289 288 287 286 286 284 283 283 282 282 279 278 277 275 274 274 273 273 272 272 272 272 272 275 275 275 274 274 273 273 273 273 274 273 274 275 275 276
290 290 290 290 289 288 287 287 286 284 282 283 282 281 279 278 276 274 274 273 273 272 272 272 271 271 271 272 273 274 274 274 273 273 273 272 273 273 273 273 274 274 275
289 289 291 290 288 286 286 283 282 282 282 281 281 279 278 276 274 273 273 273 272 271 271 271 270 269 269 271 273 273 273 273 273 273 273 273 273 275 276 276 274 275 276
286 286 286 286 286 285 283 281 281 280 280 281 280 279 277 275 273 273 272 272 271 270 270 270 269 268 267 269 271 273 273 272 273 274 274 276 275 277 278 276 275 274 275
284 283 283 283 283 282 280 280 280 279 281 280 278 276 275 273 273 271 271 270 269 268 267 267 268 267 267 268 271 273 273 273 273 274 274 275 276 277 278 277 275 274 276
281 283 282 281 282 281 280 280 279 281 278 277 275 273 271 272 270 268 268 267 267 266 266 266 267 269 268 269 271 273 274 275 274 273 274 275 276 275 275 274 274 275 274
281 281 281 280 280 279 279 279 281 277 274 273 272 270 269 269 268 267 267 267 267 267 268 267 268 268 269 270 271 272 274 275 274 275 275 274 273 272 271 271 271 270 269
280 279 278 278 278 278 277 279 276 274 271 271 269 268 267 267 266 268 268 268 268 268 268 267 267 268 269 270 271 272 273 274 275 274 270 270 269 269 269 267 268 267 267
279 277 278 278 279 278 277 276 273 271 271 270 269 269 268 266 268 267 269 268 269 268 267 267 267 268 269 270 272 274 274 275 275 271 268 266 265 265 266 266 266 266 266
278 276 276 276 278 276 275 271 270 270 270 269 269 269 269 268 268 268 268 269 270 271 272 273 273 273 272 274 273 274 275 274 272 267 264 263 264 263 264 264 264 265 265
Wind_Speed
5 7 7 7 7 8 9 9 10 8 7 7 8 8 10 9 11 11 14 14 13 13 12 9 10 9 9 10 10 6 6 6 9 4 4 3 1 0 0 3 3 4 4
7 7 7 8 8 9 10 10 10 10 8 6 7 7 8 9 9 10 13 14 15 14 13 12 11 12 9 12 12 12 6 6 9 6 5 4 2 4 5 4 3 5 6
13 10 7 7 7 8 8 9 10 11 12 13 10 10 10 9 9 9 9 12 14 14 14 14 12 12 11 10 12 12 14 8 8 11 6 5 5 11 3 7 6 9 8
9 7 8 9 8 8 7 9 9 10 9 9 9 13 9 9 8 8 9 10 12 13 13 13 12 12 9 11 10 10 10 10 9 5 8 6 5 5 7 4 9 7 12
12 10 8 8 7 6 8 9 11 11 10 11 11 10 13 10 8 7 10 11 11 12 12 11 11 11 9 10 11 10 10 8 7 6 6 6 6 3 7 11 10 8 8
14 11 8 7 7 6 7 8 10 10 10 10 11 13 13 11 8 8 7 6 6 7 10 10 9 9 9 9 8 8 9 8 6 6 5 5 5 7 7 11 13 14 8
14 13 12 10 9 8 8 8 10 11 10 11 11 11 12 12 11 9 7 7 6 6 8 8 8 7 7 7 7 7 6 7 6 7 6 5 5 6 8 10 11 12 11
16 15 15 13 12 11 10 10 10 11 11 10 11 10 10 7 7 8 7 6 6 5 6 6 7 7 7 6 6 4 5 6 5 7 5 6 5 6 7 8 10 13 11
18 17 15 13 13 13 12 12 12 11 10 11 10 9 9 9 8 8 7 6 6 4 5 5 5 5 5 5 5 4 5 5 5 6 6 6 6 6 7 8 8 10 13
18 17 15 15 13 12 11 12 11 12 12 11 9 8 8 8 8 7 7 6 6 5 4 3 4 5 5 6 6 5 5 6 5 5 8 7 6 8 7 8 9 9 12
20 18 16 14 13 12 12 12 12 12 11 11 10 10 8 8 7 6 6 6 5 4 3 3 3 4 4 5 5 5 5 6 7 8 8 10 10 8 9 9 9 10 10
20 18 17 15 14 14 13 13 13 12 12 11 11 10 9 8 8 7 6 5 5 4 3 1 2 3 5 5 5 5 5 7 8 9 10 11 9 12 11 9 13 12 13
19 18 17 17 16 15 14 15 14 14 13 12 12 11 10 10 9 8 7 6 5 4 3 1 2 3 4 5 5 6 7 8 8 9 10 11 11 12 10 12 12 12 11
18 18 16 18 16 15 16 15 15 14 13 13 13 12 12 11 9 8 7 6 5 4 3 1 1 3 4 5 5 7 8 8 8 9 10 11 12 13 13 13 14 13 13
18 18 17 16 16 16 15 14 14 14 14 14 14 14 11 10 9 7 6 5 4 3 2 2 2 3 4 3 7 8 9 10 10 10 10 11 13 18 17 11 13 15 12
17 17 16 15 16 16 16 15 15 15 14 14 14 13 10 9 9 8 7 5 4 3 3 3 4 4 3 6 9 10 9 10 11 11 11 11 13 14 18 20 21 19 14
16 15 14 14 13 14 13 15 15 13 12 12 10 9 10 10 9 8 7 6 5 4 4 5 5 5 5 7 10 12 9 10 10 11 11 11 10 14 14 17 21 20 22
11 11 9 10 10 9 11 11 11 11 11 11 9 9 10 10 9 8 7 6 5 6 6 7 5 4 5 8 11 12 10 9 10 11 12 13 14 14 16 17 16 17 16
8 7 8 8 8 10 9 8 8 8 9 11 11 11 11 10 10 9 8 6 5 6 7 6 4 5 6 9 11 11 9 9 10 11 12 13 16 20 24 18 17 17 16
6 7 7 5 7 7 8 8 8 8 10 11 11 11 11 10 9 9 8 5 5 6 6 5 5 5 7 10 11 10 7 9 9 11 12 16 18 24 26 18 17 18 14
5 4 6 8 7 7 7 8 7 10 10 7 8 9 10 9 9 8 6 6 6 6 6 6 5 6 7 8 10 11 8 8 9 10 10 10 22 25 26 28 17 19 21
4 6 5 7 7 7 8 7 9 7 6 8 8 9 9 8 7 7 7 6 6 6 6 6 6 5 6 9 10 11 12 13 10 11 9 11 23 28 29 23 25 26 22
5 4 7 6 5 7 8 8 8 7 7 7 8 8 8 7 7 7 7 5 6 5 6 6 5 5 4 5 10 12 13 15 11 10 13 20 21 21 17 20 23 16 9
5 4 5 6 8 7 7 9 4 6 7 8 8 7 8 8 7 6 6 6 6 6 6 6 6 5 5 5 5 6 8 12 11 6 6 12 14 14 14 11 12 9 9
4 5 7 8 11 6 8 6 6 8 8 7 7 8 7 8 7 8 7 7 7 7 6 6 6 6 6 6 9 11 8 8 8 7 6 8 8 8 8 9 9 9 9
3 4 6 6 7 3 4 4 6 8 8 8 7 7 6 6 6 6 6 12 14 14 16 17 13 7 13 14 14 17 16 12 13 5 6 7 7 8 9 9 10 9 10
Wind_Direction
78 63 49 52 69 59 61 50 62 57 85 87 88 72 69 63 56 51 46 45 43 44 45 49 43 47 49 37 26 15 20 22 357 305 311 281 315 20 120 14 10 6 19
113 86 79 79 80 83 84 83 79 73 71 79 88 88 90 75 73 65 55 51 51 45 49 48 45 40 45 41 31 26 14 26 19 348 298 333 263 43 313 330 2 358 345
146 137 117 96 89 77 78 93 99 104 105 109 107 103 101 90 76 63 62 53 53 54 52 52 52 50 44 43 37 28 25 21 29 38 3 335 343 333 32 333 359 344 346
146 137 130 104 83 76 82 81 84 88 89 100 100 107 103 97 81 82 80 71 60 59 57 57 56 54 48 44 38 34 35 28 29 20 14 9 332 332 317 328 325 347 329
161 157 147 127 115 106 98 97 97 93 95 103 108 107 107 109 110 97 88 78 66 57 55 55 55 55 48 44 37 35 31 33 28 25 359 355 339 341 311 307 323 316 319
171 160 149 147 124 111 108 109 104 99 104 102 100 106 116 121 119 114 102 89 78 68 55 57 57 51 50 40 38 31 33 24 25 10 5 354 341 331 317 308 310 311 313
174 169 171 169 155 149 133 124 122 112 106 105 112 119 121 118 119 117 108 108 92 70 57 51 49 47 43 40 33 30 27 20 13 6 348 339 327 318 310 305 305 304 310
181 182 180 176 171 166 159 147 136 130 131 136 127 123 121 117 107 105 108 96 87 76 62 56 50 44 34 28 20 22 15 2 1 356 349 330 323 317 311 305 306 304 297
185 187 183 182 179 179 172 161 154 149 151 141 131 129 129 125 117 110 103 100 96 81 66 51 45 37 30 20 5 14 8 354 352 342 339 328 323 318 313 303 299 296 300
190 191 188 188 188 184 174 168 167 164 157 148 141 137 127 122 123 124 118 121 120 128 108 75 41 27 15 4 359 1 1 346 346 335 328 325 322 314 306 303 296 289 287
192 191 191 191 188 184 180 179 176 173 165 158 153 144 145 147 139 139 150 143 136 137 101 55 33 17 360 0 347 348 347 339 333 329 326 319 322 310 309 302 293 288 287
193 193 192 188 186 189 187 187 186 184 179 169 164 165 162 162 164 166 156 154 153 145 125 104 38 1 354 346 334 330 330 328 326 326 321 318 321 313 310 304 301 296 293
194 194 192 195 194 194 194 193 192 191 184 177 176 177 178 182 179 172 171 177 170 154 138 101 13 338 334 329 320 326 323 322 317 315 313 310 312 307 306 304 300 301 300
195 195 195 200 199 200 199 199 195 193 186 185 187 188 190 190 184 181 180 183 184 168 156 139 306 318 319 302 311 314 313 309 309 307 306 307 304 303 307 302 300 297 297
196 197 199 199 202 202 204 202 200 193 190 192 193 198 194 190 184 180 182 185 186 164 170 202 279 296 295 307 320 315 312 308 308 305 303 299 306 300 294 292 296 300 298
198 200 198 198 204 205 205 202 202 198 192 197 203 200 190 178 185 183 186 189 190 189 205 235 248 274 281 309 304 311 308 305 303 304 306 302 299 296 302 296 294 293 292
200 196 193 199 205 206 204 205 203 193 189 192 194 180 176 182 188 188 191 199 205 212 228 236 238 253 278 290 302 307 297 298 299 300 300 301 300 301 298 298 294 290 284
187 191 190 197 202 196 200 204 195 184 183 195 188 184 180 187 185 189 200 202 207 225 234 237 234 262 282 295 302 300 295 293 291 295 297 297 300 300 301 293 285 278 275
189 188 185 184 179 189 187 171 163 171 185 198 199 189 185 185 185 195 199 205 215 226 239 236 237 266 286 295 296 301 296 291 293 294 293 297 297 295 291 291 291 285 274
171 180 170 168 178 172 158 156 174 179 203 202 200 186 182 181 183 194 195 202 217 234 240 247 250 258 273 283 288 295 287 294 298 299 295 289 295 301 301 296 288 284 302
178 155 168 183 189 154 150 181 169 205 211 180 167 174 180 174 182 183 190 196 214 236 243 258 259 258 255 267 283 286 287 291 299 301 303 301 301 306 314 311 308 302 307
183 188 180 205 185 161 168 187 200 213 157 166 170 173 166 171 175 181 187 204 215 232 244 256 264 243 250 257 278 288 291 299 301 296 299 304 320 320 314 316 310 309 315
205 191 207 212 184 179 188 190 222 157 156 164 171 165 163 174 173 187 202 215 218 239 250 250 262 263 256 267 285 295 295 298 295 293 310 329 318 320 318 321 321 327 319
212 186 187 215 219 205 197 225 134 149 159 176 172 164 173 183 188 201 209 218 226 233 239 246 257 265 271 281 279 291 285 274 296 327 321 319 324 318 318 319 327 325 321
194 190 205 220 229 178 206 195 172 161 177 173 173 183 191 195 199 217 218 223 231 231 237 238 243 259 273 274 277 290 296 297 321 346 330 325 322 321 323 322 321 323 323
189 209 223 226 236 182 207 174 167 171 165 179 183 191 195 198 210 221 234 237 242 241 246 258 261 258 248 271 294 287 298 331 341 340 313 309 310 314 318 317 319 320 320